Wind_Speed
23 21 18 15 13 8 6 2 2 2 1 3 4 5 5 4 3 4 5 8 7 7
25 23 19 16 16 13 9 7 2 3 4 5 7 7 6 6 5 4 5 6 8 9
25 25 24 20 18 16 13 12 10 7 8 6 8 10 9 10 9 7 6 6 6 8
27 26 26 26 23 20 16 16 13 11 10 7 19 14 12 13 13 10 7 7 9 9
28 28 29 27 25 27 24 21 17 17 12 8 20 18 14 16 14 11 11 8 8 8
33 31 30 29 28 29 32 28 24 26 18 2 8 15 23 16 16 16 12 7 8 7
35 32 31 30 30 31 31 33 32 30 27 24 18 16 19 19 16 19 12 8 6 7
35 34 34 33 32 31 34 34 33 33 33 31 31 28 18 21 14 18 14 12 9 10
37 37 35 34 33 29 32 35 35 35 34 34 31 25 25 22 18 18 14 11 10 10
37 38 37 36 34 32 33 31 34 35 37 31 18 28 23 21 21 18 14 12 10 12
39 38 37 35 35 35 33 30 31 32 31 33 27 22 19 22 25 20 15 12 11 10
40 37 34 31 31 33 32 31 29 29 25 21 20 18 20 24 25 22 15 14 12 12
20 21 22 24 26 29 30 30 28 28 24 15 12 18 19 28 26 25 17 16 15 12
10 13 15 18 22 26 28 30 27 28 17 12 14 19 22 22 25 24 20 17 15 12
Wind_Direction
215 222 222 223 225 224 228 217 228 268 267 315 292 277 278 254 237 241 256 249 253 267
218 223 225 226 227 229 231 228 252 228 290 330 307 279 276 258 247 253 266 256 257 270
222 228 230 230 231 234 231 236 237 223 250 275 287 280 265 253 256 258 257 255 270 275
227 229 233 234 234 236 235 232 240 223 233 296 304 269 257 254 244 250 248 269 277 280
230 233 235 236 235 236 237 230 231 226 231 304 321 266 257 255 251 258 259 277 262 261
234 235 237 238 236 233 234 233 230 231 216 230 298 302 262 248 254 255 262 270 263 248
238 239 238 240 239 236 235 234 233 234 230 233 254 274 277 243 248 242 244 245 246 282
242 242 241 240 241 238 237 238 235 234 232 241 248 264 275 244 233 235 247 231 234 235
244 244 243 241 240 239 238 238 236 236 237 244 248 258 275 243 225 220 228 236 223 220
248 247 246 242 238 237 240 238 239 237 236 243 256 259 269 222 212 219 218 216 223 218
253 252 250 245 239 238 241 241 241 243 242 237 243 258 243 208 209 213 207 224 231 218
257 257 256 249 241 239 239 241 247 247 244 248 251 237 203 201 207 208 214 215 225 205
260 259 255 249 243 238 237 240 248 248 231 226 252 216 195 193 208 205 215 218 205 201
239 242 240 240 239 238 238 240 241 222 205 232 239 208 196 206 207 210 217 214 202 206
Height
1545 1548 1551 1553 1557 1559 1559 1560 1560 1560 1560 1561 1560 1561 1560 1560 1559 1558 1559 1560 1560 1561
1542 1545 1547 1550 1553 1554 1557 1558 1557 1556 1555 1555 1556 1558 1560 1560 1559 1558 1558 1558 1558 1559
1539 1542 1544 1546 1548 1551 1554 1554 1555 1554 1553 1550 1552 1554 1556 1557 1558 1558 1557 1557 1557 1557
1535 1538 1541 1543 1546 1548 1551 1553 1553 1553 1554 1552 1550 1549 1551 1553 1555 1556 1556 1556 1556 1556
1531 1534 1537 1540 1543 1545 1547 1548 1550 1550 1550 1546 1544 1545 1549 1553 1555 1556 1556 1553 1554 1555
1527 1530 1533 1536 1539 1541 1542 1543 1544 1544 1548 1546 1543 1542 1543 1547 1551 1552 1554 1553 1553 1553
1521 1524 1528 1531 1534 1535 1536 1537 1538 1540 1544 1542 1539 1538 1540 1543 1548 1551 1551 1552 1551 1552
1514 1519 1523 1526 1527 1530 1531 1531 1534 1535 1537 1538 1538 1535 1536 1538 1543 1547 1549 1549 1550 1551
1509 1513 1516 1519 1522 1524 1524 1525 1527 1528 1531 1530 1533 1534 1533 1534 1539 1544 1546 1548 1548 1548
1503 1506 1509 1512 1516 1517 1518 1520 1521 1523 1523 1526 1526 1529 1531 1531 1535 1541 1544 1546 1547 1548
1497 1499 1502 1506 1509 1511 1513 1514 1515 1517 1522 1524 1523 1526 1527 1530 1534 1538 1542 1544 1545 1546
1492 1494 1497 1500 1503 1505 1507 1507 1510 1513 1516 1516 1522 1522 1522 1528 1531 1536 1539 1540 1543 1544
1488 1490 1492 1494 1496 1498 1500 1504 1505 1506 1507 1513 1516 1516 1518 1524 1529 1533 1535 1538 1540 1543
1485 1484 1488 1490 1491 1493 1496 1498 1500 1504 1510 1513 1513 1515 1517 1521 1526 1529 1533 1536 1538 1540